Tracking 17631 objects as of 3-May-2016
HD Live streaming from Space Station
objects crossing your sky now

INTELSAT 2-F4


INTELSAT 2-F4 is classified as:


NORAD ID: 2969
Int'l Code: 1967-094A
Perigee: 35,724.2 km
Apogee: 35,858.6 km
Inclination: 4.6 °
Period: 1,436.0 minutes
Semi major axis: 42162 km
RCS: 2.5118 m2 (large)
Launch date: September 28, 1967
Source: International Telecommunications Satellite Organization (ITSO)
Launch site: AIR FORCE EASTERN TEST RANGE (AFETR)
Your satellite tracking list
Your tracking list is empty





NASA's NSSDC Master Catalog

Two Line Element Set (TLE):
1  2969U 67094A   16122.14738994 -.00000244 +00000-0 +00000-0 0  9990
2  2969 004.6047 300.5567 0015938 218.6879 081.3597 01.00280201078228
Source of the keplerian elements: AFSPC

N2YO: 357